Year,Month,Day,Hour,Minute,Value (Times are PST for windgust in km/hr)
2014,12,10,00,00,4.80
2014,12,10,00,01,1.60
2014,12,10,00,02,1.60
2014,12,10,00,03,3.20
2014,12,10,00,04,4.80
2014,12,10,00,05,3.20
2014,12,10,00,06,3.20
2014,12,10,00,11,3.20
2014,12,10,00,12,4.80
2014,12,10,00,13,3.20
2014,12,10,00,17,3.20
2014,12,10,00,18,6.40
2014,12,10,00,19,3.20
2014,12,10,00,20,3.20
2014,12,10,00,22,1.60
2014,12,10,00,53,3.20
2014,12,10,00,54,3.20
2014,12,10,00,55,1.60
2014,12,10,01,15,1.60
2014,12,10,01,16,1.60
2014,12,10,01,17,4.80
2014,12,10,01,18,9.60
2014,12,10,01,19,9.60
2014,12,10,01,20,8.10
2014,12,10,01,21,6.40
2014,12,10,01,22,6.40
2014,12,10,01,23,6.40
2014,12,10,01,24,6.40
2014,12,10,01,25,3.20
2014,12,10,01,27,6.40
2014,12,10,01,28,6.40
2014,12,10,01,29,1.60
2014,12,10,01,30,3.20
2014,12,10,01,33,3.20
2014,12,10,02,13,3.20
2014,12,10,02,14,6.40
2014,12,10,02,15,6.40
2014,12,10,02,16,6.40
2014,12,10,02,17,6.40
2014,12,10,02,18,6.40
2014,12,10,02,19,3.20
2014,12,10,02,20,6.40
2014,12,10,02,21,6.40
2014,12,10,02,22,6.40
2014,12,10,02,32,6.40
2014,12,10,02,33,8.10
2014,12,10,02,34,9.60
2014,12,10,02,35,8.10
2014,12,10,02,36,3.20
2014,12,10,02,37,1.60
2014,12,10,02,38,3.20
2014,12,10,02,39,8.10
2014,12,10,02,40,9.60
2014,12,10,02,41,9.60
2014,12,10,02,42,8.10
2014,12,10,02,43,8.10
2014,12,10,02,44,8.10
2014,12,10,02,45,1.60
2014,12,10,02,46,8.10
2014,12,10,02,47,9.60
2014,12,10,02,48,6.40
2014,12,10,02,49,1.60
2014,12,10,02,50,6.40
2014,12,10,02,51,3.20
2014,12,10,02,52,6.40
2014,12,10,02,54,8.10
2014,12,10,02,56,3.20
2014,12,10,03,00,3.20
2014,12,10,03,01,8.10
2014,12,10,03,02,6.40
2014,12,10,03,03,6.40
2014,12,10,03,04,3.20
2014,12,10,03,05,6.40
2014,12,10,03,06,1.60
2014,12,10,03,07,6.40
2014,12,10,03,08,6.40
2014,12,10,03,09,9.60
2014,12,10,03,10,11.30
2014,12,10,03,11,11.30
2014,12,10,03,12,11.30
2014,12,10,03,13,11.30
2014,12,10,03,14,6.40
2014,12,10,03,15,3.20
2014,12,10,03,16,3.20
2014,12,10,03,17,6.40
2014,12,10,03,18,1.60
2014,12,10,03,20,8.10
2014,12,10,03,21,3.20
2014,12,10,03,22,6.40
2014,12,10,03,23,6.40
2014,12,10,03,24,8.10
2014,12,10,03,25,4.80
2014,12,10,03,39,4.80
2014,12,10,03,40,4.80
2014,12,10,03,41,4.80
2014,12,10,03,42,3.20
2014,12,10,03,44,6.40
2014,12,10,03,45,6.40
2014,12,10,03,46,6.40
2014,12,10,03,47,4.80
2014,12,10,03,52,4.80
2014,12,10,03,53,3.20
2014,12,10,03,55,3.20
2014,12,10,03,56,4.80
2014,12,10,04,02,4.80
2014,12,10,04,03,6.40
2014,12,10,04,04,4.80
2014,12,10,04,05,4.80
2014,12,10,04,06,4.80
2014,12,10,04,07,4.80
2014,12,10,04,08,4.80
2014,12,10,04,11,3.20
2014,12,10,04,12,3.20
2014,12,10,04,13,3.20
2014,12,10,04,14,4.80
2014,12,10,04,17,6.40
2014,12,10,04,18,8.10
2014,12,10,04,19,6.40
2014,12,10,04,20,4.80
2014,12,10,04,21,4.80
2014,12,10,04,23,4.80
2014,12,10,04,24,6.40
2014,12,10,04,25,6.40
2014,12,10,04,26,4.80
2014,12,10,04,27,6.40
2014,12,10,04,28,4.80
2014,12,10,04,29,8.10
2014,12,10,04,30,9.60
2014,12,10,04,31,11.30
2014,12,10,04,32,12.90
2014,12,10,04,33,12.90
2014,12,10,04,34,9.60
2014,12,10,04,35,12.90
2014,12,10,04,36,6.40
2014,12,10,04,37,4.80
2014,12,10,04,38,9.60
2014,12,10,04,39,11.30
2014,12,10,04,40,12.90
2014,12,10,04,41,16.10
2014,12,10,04,42,22.50
2014,12,10,04,43,16.10
2014,12,10,04,44,9.60
2014,12,10,04,45,11.30
2014,12,10,04,46,12.90
2014,12,10,04,47,9.60
2014,12,10,04,48,17.70
2014,12,10,04,49,12.90
2014,12,10,04,50,8.10
2014,12,10,04,51,9.60
2014,12,10,04,52,12.90
2014,12,10,04,53,3.20
2014,12,10,04,54,11.30
2014,12,10,04,55,6.40
2014,12,10,04,56,12.90
2014,12,10,04,57,9.60
2014,12,10,04,58,9.60
2014,12,10,04,59,12.90
2014,12,10,05,00,12.90
2014,12,10,05,01,11.30
2014,12,10,05,02,8.10
2014,12,10,05,03,8.10
2014,12,10,05,04,11.30
2014,12,10,05,05,8.10
2014,12,10,05,06,11.30
2014,12,10,05,07,1.60
2014,12,10,05,08,16.10
2014,12,10,05,09,14.50
2014,12,10,05,10,9.60
2014,12,10,05,11,8.10
2014,12,10,05,12,8.10
2014,12,10,05,13,19.30
2014,12,10,05,14,9.60
2014,12,10,05,15,12.90
2014,12,10,05,16,6.40
2014,12,10,05,17,8.10
2014,12,10,05,18,9.60
2014,12,10,05,19,9.60
2014,12,10,05,20,11.30
2014,12,10,05,21,12.90
2014,12,10,05,22,8.10
2014,12,10,05,23,12.90
2014,12,10,05,24,11.30
2014,12,10,05,25,6.40
2014,12,10,05,26,6.40
2014,12,10,05,27,4.80
2014,12,10,05,28,1.60
2014,12,10,05,33,3.20
2014,12,10,05,36,3.20
2014,12,10,05,37,14.50
2014,12,10,05,38,11.30
2014,12,10,05,39,9.60
2014,12,10,05,40,4.80
2014,12,10,05,41,4.80
2014,12,10,05,42,6.40
2014,12,10,05,43,6.40
2014,12,10,05,44,16.10
2014,12,10,05,45,17.70
2014,12,10,05,46,3.20
2014,12,10,05,51,1.60
2014,12,10,05,52,3.20
2014,12,10,05,53,8.10
2014,12,10,05,54,3.20
2014,12,10,05,55,3.20
2014,12,10,05,56,6.40
2014,12,10,05,57,6.40
2014,12,10,05,58,8.10
2014,12,10,05,59,8.10
2014,12,10,06,00,6.40
2014,12,10,06,01,8.10
2014,12,10,06,02,8.10
2014,12,10,06,03,8.10
2014,12,10,06,04,9.60
2014,12,10,06,05,9.60
2014,12,10,06,06,8.10
2014,12,10,06,07,9.60
2014,12,10,06,08,12.90
2014,12,10,06,09,16.10
2014,12,10,06,10,12.90
2014,12,10,06,11,11.30
2014,12,10,06,12,11.30
2014,12,10,06,13,12.90
2014,12,10,06,14,11.30
2014,12,10,06,15,9.60
2014,12,10,06,16,6.40
2014,12,10,06,17,9.60
2014,12,10,06,18,9.60
2014,12,10,06,19,8.10
2014,12,10,06,20,4.80
2014,12,10,06,21,9.60
2014,12,10,06,22,6.40
2014,12,10,06,23,12.90
2014,12,10,06,24,12.90
2014,12,10,06,25,16.10
2014,12,10,06,26,12.90
2014,12,10,06,27,11.30
2014,12,10,06,28,8.10
2014,12,10,06,29,9.60
2014,12,10,06,30,12.90
2014,12,10,06,31,8.10
2014,12,10,06,32,9.60
2014,12,10,06,33,8.10
2014,12,10,06,34,16.10
2014,12,10,06,35,11.30
2014,12,10,06,36,12.90
2014,12,10,06,37,16.10
2014,12,10,06,38,16.10
2014,12,10,06,39,12.90
2014,12,10,06,40,17.70
2014,12,10,06,41,11.30
2014,12,10,06,42,16.10
2014,12,10,06,43,11.30
2014,12,10,06,44,11.30
2014,12,10,06,45,16.10
2014,12,10,06,46,12.90
2014,12,10,06,47,9.60
2014,12,10,06,48,11.30
2014,12,10,06,49,12.90
2014,12,10,06,50,16.10
2014,12,10,06,51,12.90
2014,12,10,06,52,11.30
2014,12,10,06,53,14.50
2014,12,10,06,54,12.90
2014,12,10,06,55,12.90
2014,12,10,06,56,11.30
2014,12,10,06,57,12.90
2014,12,10,06,58,11.30
2014,12,10,06,59,11.30
2014,12,10,07,00,16.10
2014,12,10,07,01,16.10
2014,12,10,07,02,8.10
2014,12,10,07,03,19.30
2014,12,10,07,04,6.40
2014,12,10,07,05,8.10
2014,12,10,07,06,6.40
2014,12,10,07,07,8.10
2014,12,10,07,08,11.30
2014,12,10,07,09,9.60
2014,12,10,07,10,3.20
2014,12,10,07,11,12.90
2014,12,10,07,12,6.40
2014,12,10,07,13,19.30
2014,12,10,07,14,24.20
2014,12,10,07,15,14.50
2014,12,10,07,16,11.30
2014,12,10,07,17,17.70
2014,12,10,07,18,19.30
2014,12,10,07,19,16.10
2014,12,10,07,20,19.30
2014,12,10,07,21,22.50
2014,12,10,07,22,9.60
2014,12,10,07,23,17.70
2014,12,10,07,24,27.40
2014,12,10,07,25,35.40
2014,12,10,07,26,32.20
2014,12,10,07,27,25.70
2014,12,10,07,28,14.50
2014,12,10,07,29,14.50
2014,12,10,07,30,20.90
2014,12,10,07,31,22.50
2014,12,10,07,32,12.90
2014,12,10,07,33,11.30
2014,12,10,07,34,17.70
2014,12,10,07,35,29.00
2014,12,10,07,36,32.20
2014,12,10,07,37,41.80
2014,12,10,07,38,27.40
2014,12,10,07,39,33.80
2014,12,10,07,40,35.40
2014,12,10,07,41,24.20
2014,12,10,07,42,32.20
2014,12,10,07,43,35.40
2014,12,10,07,44,19.30
2014,12,10,07,45,37.00
2014,12,10,07,46,14.50
2014,12,10,07,47,30.60
2014,12,10,07,48,20.90
2014,12,10,07,49,17.70
2014,12,10,07,50,27.40
2014,12,10,07,51,30.60
2014,12,10,07,52,35.40
2014,12,10,07,53,29.00
2014,12,10,07,54,19.30
2014,12,10,07,55,17.70
2014,12,10,07,56,32.20
2014,12,10,07,57,16.10
2014,12,10,07,58,25.70
2014,12,10,07,59,17.70
2014,12,10,08,00,24.20
2014,12,10,08,01,33.80
2014,12,10,08,02,22.50
2014,12,10,08,03,25.70
2014,12,10,08,04,17.70
2014,12,10,08,05,14.50
2014,12,10,08,06,19.30
2014,12,10,08,07,32.20
2014,12,10,08,08,25.70
2014,12,10,08,09,16.10
2014,12,10,08,10,30.60
2014,12,10,08,11,24.20
2014,12,10,08,12,22.50
2014,12,10,08,13,19.30
2014,12,10,08,14,16.10
2014,12,10,08,15,19.30
2014,12,10,08,16,20.90
2014,12,10,08,17,14.50
2014,12,10,08,18,16.10
2014,12,10,08,19,17.70
2014,12,10,08,20,11.30
2014,12,10,08,21,12.90
2014,12,10,08,22,11.30
2014,12,10,08,23,14.50
2014,12,10,08,24,17.70
2014,12,10,08,25,11.30
2014,12,10,08,26,9.60
2014,12,10,08,27,14.50
2014,12,10,08,28,12.90
2014,12,10,08,29,9.60
2014,12,10,08,30,9.60
2014,12,10,08,31,9.60
2014,12,10,08,32,14.50
2014,12,10,08,33,17.70
2014,12,10,08,34,20.90
2014,12,10,08,35,24.20
2014,12,10,08,36,17.70
2014,12,10,08,37,4.80
2014,12,10,08,38,11.30
2014,12,10,08,39,11.30
2014,12,10,08,40,12.90
2014,12,10,08,41,12.90
2014,12,10,08,42,8.10
2014,12,10,08,43,12.90
2014,12,10,08,44,22.50
2014,12,10,08,45,16.10
2014,12,10,08,46,17.70
2014,12,10,08,47,16.10
2014,12,10,08,48,14.50
2014,12,10,08,49,16.10
2014,12,10,08,50,14.50
2014,12,10,08,51,9.60
2014,12,10,08,52,20.90
2014,12,10,08,53,9.60
2014,12,10,08,54,8.10
2014,12,10,08,55,6.40
2014,12,10,08,56,8.10
2014,12,10,08,57,4.80
2014,12,10,08,59,19.30
2014,12,10,09,00,17.70
2014,12,10,09,01,9.60
2014,12,10,09,02,6.40
2014,12,10,09,03,3.20
2014,12,10,09,04,4.80
2014,12,10,09,05,8.10
2014,12,10,09,06,6.40
2014,12,10,09,10,8.10
2014,12,10,09,11,3.20
2014,12,10,09,12,8.10
2014,12,10,09,13,9.60
2014,12,10,09,14,11.30
2014,12,10,09,15,12.90
2014,12,10,09,16,8.10
2014,12,10,09,17,9.60
2014,12,10,09,18,12.90
2014,12,10,09,19,9.60
2014,12,10,09,20,12.90
2014,12,10,09,21,11.30
2014,12,10,09,22,4.80
2014,12,10,09,23,9.60
2014,12,10,09,24,11.30
2014,12,10,09,25,11.30
2014,12,10,09,26,20.90
2014,12,10,09,27,27.40
2014,12,10,09,28,17.70
2014,12,10,09,29,12.90
2014,12,10,09,30,24.20
2014,12,10,09,31,30.60
2014,12,10,09,32,17.70
2014,12,10,09,33,14.50
2014,12,10,09,34,17.70
2014,12,10,09,35,9.60
2014,12,10,09,36,14.50
2014,12,10,09,37,14.50
2014,12,10,09,38,14.50
2014,12,10,09,39,14.50
2014,12,10,09,40,20.90
2014,12,10,09,41,16.10
2014,12,10,09,42,12.90
2014,12,10,09,43,17.70
2014,12,10,09,44,14.50
2014,12,10,09,45,11.30
2014,12,10,09,46,8.10
2014,12,10,09,47,17.70
2014,12,10,09,48,14.50
2014,12,10,09,49,8.10
2014,12,10,09,50,6.40
2014,12,10,09,51,12.90
2014,12,10,09,52,20.90
2014,12,10,09,53,11.30
2014,12,10,09,54,17.70
2014,12,10,09,55,12.90
2014,12,10,09,56,19.30
2014,12,10,09,57,17.70
2014,12,10,09,58,17.70
2014,12,10,09,59,11.30
2014,12,10,10,00,14.50
2014,12,10,10,01,14.50
2014,12,10,10,02,12.90
2014,12,10,10,03,19.30
2014,12,10,10,04,30.60
2014,12,10,10,05,12.90
2014,12,10,10,06,11.30
2014,12,10,10,07,11.30
2014,12,10,10,08,12.90
2014,12,10,10,09,17.70
2014,12,10,10,10,25.70
2014,12,10,10,11,24.20
2014,12,10,10,12,12.90
2014,12,10,10,13,12.90
2014,12,10,10,14,12.90
2014,12,10,10,15,17.70
2014,12,10,10,16,22.50
2014,12,10,10,17,22.50
2014,12,10,10,18,29.00
2014,12,10,10,19,20.90
2014,12,10,10,20,19.30
2014,12,10,10,21,14.50
2014,12,10,10,22,14.50
2014,12,10,10,23,30.60
2014,12,10,10,24,19.30
2014,12,10,10,25,17.70
2014,12,10,10,26,35.40
2014,12,10,10,27,19.30
2014,12,10,10,28,16.10
2014,12,10,10,29,19.30
2014,12,10,10,30,24.20
2014,12,10,10,31,27.40
2014,12,10,10,32,14.50
2014,12,10,10,33,17.70
2014,12,10,10,34,17.70
2014,12,10,10,35,16.10
2014,12,10,10,36,37.00
2014,12,10,10,37,17.70
2014,12,10,10,38,14.50
2014,12,10,10,39,24.20
2014,12,10,10,40,27.40
2014,12,10,10,41,17.70
2014,12,10,10,42,19.30
2014,12,10,10,43,20.90
2014,12,10,10,44,9.60
2014,12,10,10,45,22.50
2014,12,10,10,46,19.30
2014,12,10,10,47,29.00
2014,12,10,10,48,38.60
2014,12,10,10,49,25.70
2014,12,10,10,50,17.70
2014,12,10,10,51,20.90
2014,12,10,10,52,25.70
2014,12,10,10,53,25.70
2014,12,10,10,54,20.90
2014,12,10,10,55,19.30
2014,12,10,10,56,11.30
2014,12,10,10,57,9.60
2014,12,10,10,58,19.30
2014,12,10,10,59,29.00
2014,12,10,11,00,30.60
2014,12,10,11,01,20.90
2014,12,10,11,02,22.50
2014,12,10,11,03,16.10
2014,12,10,11,04,17.70
2014,12,10,11,05,22.50
2014,12,10,11,06,20.90
2014,12,10,11,07,19.30
2014,12,10,11,08,17.70
2014,12,10,11,09,22.50
2014,12,10,11,10,24.20
2014,12,10,11,11,22.50
2014,12,10,11,12,24.20
2014,12,10,11,13,20.90
2014,12,10,11,14,3.20
2014,12,10,11,15,3.20
2014,12,10,11,16,3.20
2014,12,10,11,17,3.20
2014,12,10,11,18,11.30
2014,12,10,11,19,9.60
2014,12,10,11,20,9.60
2014,12,10,11,21,17.70
2014,12,10,11,22,14.50
2014,12,10,11,23,8.10
2014,12,10,11,24,11.30
2014,12,10,11,25,14.50
2014,12,10,11,26,11.30
2014,12,10,11,27,9.60
2014,12,10,11,28,6.40
2014,12,10,11,29,11.30
2014,12,10,11,30,11.30
2014,12,10,11,31,8.10
2014,12,10,11,32,8.10
2014,12,10,11,33,16.10
2014,12,10,11,34,12.90
2014,12,10,11,35,11.30
2014,12,10,11,36,6.40
2014,12,10,11,37,3.20
2014,12,10,11,38,3.20
2014,12,10,11,39,3.20
2014,12,10,11,40,1.60
2014,12,10,11,41,4.80
2014,12,10,11,44,3.20
2014,12,10,11,45,1.60
2014,12,10,11,49,1.60
2014,12,10,11,59,1.60
2014,12,10,12,01,6.40
2014,12,10,12,02,6.40
2014,12,10,12,03,3.20
2014,12,10,12,05,3.20
2014,12,10,12,06,3.20
2014,12,10,12,08,6.40
2014,12,10,12,09,8.10
2014,12,10,12,10,8.10
2014,12,10,12,11,6.40
2014,12,10,12,13,4.80
2014,12,10,12,17,3.20
2014,12,10,12,18,1.60
2014,12,10,12,20,3.20
2014,12,10,12,23,4.80
2014,12,10,12,24,3.20
2014,12,10,12,30,4.80
2014,12,10,12,31,4.80
2014,12,10,12,32,8.10
2014,12,10,12,33,4.80
2014,12,10,12,34,4.80
2014,12,10,12,35,8.10
2014,12,10,12,36,11.30
2014,12,10,12,37,8.10
2014,12,10,12,38,8.10
2014,12,10,12,39,6.40
2014,12,10,12,40,8.10
2014,12,10,12,41,4.80
2014,12,10,12,42,9.60
2014,12,10,12,43,8.10
2014,12,10,12,44,8.10
2014,12,10,12,45,8.10
2014,12,10,12,46,9.60
2014,12,10,12,47,1.60
2014,12,10,12,51,6.40
2014,12,10,12,52,8.10
2014,12,10,12,53,6.40
2014,12,10,12,54,6.40
2014,12,10,12,55,4.80
2014,12,10,12,56,9.60
2014,12,10,12,57,1.60
2014,12,10,12,58,3.20
2014,12,10,12,59,6.40
2014,12,10,13,00,3.20
2014,12,10,13,01,6.40
2014,12,10,13,02,3.20
2014,12,10,13,03,6.40
2014,12,10,13,04,6.40
2014,12,10,13,05,4.80
2014,12,10,13,06,4.80
2014,12,10,13,07,8.10
2014,12,10,13,08,8.10
2014,12,10,13,09,9.60
2014,12,10,13,10,8.10
2014,12,10,13,13,6.40
2014,12,10,13,14,8.10
2014,12,10,13,15,9.60
2014,12,10,13,20,3.20
2014,12,10,13,22,1.60
2014,12,10,13,24,1.60
2014,12,10,13,26,3.20
2014,12,10,13,27,1.60
2014,12,10,13,28,4.80
2014,12,10,13,29,1.60
2014,12,10,13,30,4.80
2014,12,10,13,31,6.40
2014,12,10,13,32,6.40
2014,12,10,13,33,6.40
2014,12,10,13,34,6.40
2014,12,10,13,35,3.20
2014,12,10,13,36,4.80
2014,12,10,13,37,4.80
2014,12,10,13,38,6.40
2014,12,10,13,39,3.20
2014,12,10,13,40,1.60
2014,12,10,13,41,6.40
2014,12,10,13,42,8.10
2014,12,10,13,43,8.10
2014,12,10,13,44,8.10
2014,12,10,13,45,6.40
2014,12,10,13,46,9.60
2014,12,10,13,47,6.40
2014,12,10,13,48,4.80
2014,12,10,13,49,4.80
2014,12,10,13,50,6.40
2014,12,10,13,51,11.30
2014,12,10,13,52,8.10
2014,12,10,13,53,4.80
2014,12,10,13,54,6.40
2014,12,10,13,55,6.40
2014,12,10,13,56,3.20
2014,12,10,13,59,4.80
2014,12,10,14,00,4.80
2014,12,10,14,01,3.20
2014,12,10,14,03,4.80
2014,12,10,14,04,4.80
2014,12,10,14,05,6.40
2014,12,10,14,06,9.60
2014,12,10,14,07,9.60
2014,12,10,14,08,4.80
2014,12,10,14,09,4.80
2014,12,10,14,10,4.80
2014,12,10,14,11,4.80
2014,12,10,14,12,3.20
2014,12,10,14,13,4.80
2014,12,10,14,14,3.20
2014,12,10,14,15,4.80
2014,12,10,14,16,3.20
2014,12,10,14,18,3.20
2014,12,10,14,19,4.80
2014,12,10,14,20,6.40
2014,12,10,14,21,1.60
2014,12,10,14,23,6.40
2014,12,10,14,24,6.40
2014,12,10,14,25,4.80
2014,12,10,14,26,6.40
2014,12,10,14,27,4.80
2014,12,10,14,28,3.20
2014,12,10,14,29,9.60
2014,12,10,14,30,3.20
2014,12,10,14,31,3.20
2014,12,10,14,32,4.80
2014,12,10,14,33,4.80
2014,12,10,14,35,1.60
2014,12,10,14,36,3.20
2014,12,10,14,37,4.80
2014,12,10,14,38,4.80
2014,12,10,14,39,8.10
2014,12,10,14,40,4.80
2014,12,10,14,41,4.80
2014,12,10,14,42,6.40
2014,12,10,14,43,4.80
2014,12,10,14,44,1.60
2014,12,10,14,45,1.60
2014,12,10,14,46,1.60
2014,12,10,14,47,3.20
2014,12,10,14,48,6.40
2014,12,10,14,49,4.80
2014,12,10,14,52,4.80
2014,12,10,14,53,4.80
2014,12,10,14,54,4.80
2014,12,10,14,55,4.80
2014,12,10,14,57,1.60
2014,12,10,14,58,6.40
2014,12,10,14,59,6.40
2014,12,10,15,00,4.80
2014,12,10,15,01,3.20
2014,12,10,15,04,1.60
2014,12,10,15,05,4.80
2014,12,10,15,06,4.80
2014,12,10,15,07,4.80
2014,12,10,15,08,4.80
2014,12,10,15,09,4.80
2014,12,10,15,10,3.20
2014,12,10,15,25,1.60
2014,12,10,15,26,1.60
2014,12,10,15,27,3.20
2014,12,10,15,28,3.20
2014,12,10,15,32,3.20
2014,12,10,15,33,1.60
2014,12,10,15,37,1.60
2014,12,10,15,38,1.60
2014,12,10,15,46,3.20
2014,12,10,15,47,3.20
2014,12,10,15,48,1.60
2014,12,10,15,51,3.20
2014,12,10,15,52,4.80
2014,12,10,15,55,1.60
2014,12,10,15,59,4.80
2014,12,10,16,00,4.80
2014,12,10,16,01,3.20
2014,12,10,16,04,3.20
2014,12,10,16,05,1.60
2014,12,10,16,06,3.20
2014,12,10,16,07,4.80
2014,12,10,16,08,4.80
2014,12,10,16,09,3.20
2014,12,10,16,10,9.60
2014,12,10,16,12,8.10
2014,12,10,16,13,3.20
2014,12,10,16,15,6.40
2014,12,10,16,20,1.60
2014,12,10,16,21,3.20
2014,12,10,16,22,9.60
2014,12,10,16,23,6.40
2014,12,10,16,24,8.10
2014,12,10,16,25,8.10
2014,12,10,16,26,6.40
2014,12,10,16,27,3.20
2014,12,10,16,28,3.20
2014,12,10,16,29,9.60
2014,12,10,16,30,6.40
2014,12,10,16,31,6.40
2014,12,10,16,32,6.40
2014,12,10,16,33,3.20
2014,12,10,16,34,3.20
2014,12,10,16,35,6.40
2014,12,10,16,36,8.10
2014,12,10,16,37,8.10
2014,12,10,16,39,6.40
2014,12,10,16,42,1.60
2014,12,10,16,43,1.60
2014,12,10,16,48,3.20
2014,12,10,16,49,3.20
2014,12,10,16,51,1.60
2014,12,10,16,56,3.20
2014,12,10,16,58,3.20
2014,12,10,16,59,1.60
2014,12,10,17,00,3.20
2014,12,10,17,01,3.20
2014,12,10,17,08,3.20
2014,12,10,17,10,1.60
2014,12,10,17,11,1.60
2014,12,10,17,15,1.60
2014,12,10,17,16,8.10
2014,12,10,17,17,3.20
2014,12,10,17,18,6.40
2014,12,10,17,19,6.40
2014,12,10,17,20,8.10
2014,12,10,17,21,6.40
2014,12,10,17,22,6.40
2014,12,10,17,29,1.60
2014,12,10,17,36,3.20
2014,12,10,17,37,1.60
2014,12,10,17,48,1.60
2014,12,10,17,49,8.10
2014,12,10,17,50,3.20
2014,12,10,17,51,9.60
2014,12,10,17,52,9.60
2014,12,10,17,53,6.40
2014,12,10,17,54,3.20
2014,12,10,17,55,1.60
2014,12,10,17,56,8.10
2014,12,10,17,57,3.20
2014,12,10,18,01,6.40
2014,12,10,18,02,6.40
2014,12,10,18,04,1.60
2014,12,10,18,07,1.60
2014,12,10,18,08,3.20
2014,12,10,18,09,9.60
2014,12,10,18,10,6.40
2014,12,10,18,12,1.60
2014,12,10,18,13,6.40
2014,12,10,18,14,6.40
2014,12,10,18,15,1.60
2014,12,10,18,18,6.40
2014,12,10,18,19,6.40
2014,12,10,18,20,1.60
2014,12,10,18,21,1.60
2014,12,10,18,22,3.20
2014,12,10,18,25,1.60
2014,12,10,18,30,1.60
2014,12,10,18,32,3.20
2014,12,10,18,33,6.40
2014,12,10,18,34,6.40
2014,12,10,18,35,6.40
2014,12,10,18,36,9.60
2014,12,10,18,37,6.40
2014,12,10,18,38,3.20
2014,12,10,18,39,8.10
2014,12,10,18,40,8.10
2014,12,10,18,41,8.10
2014,12,10,18,42,3.20
2014,12,10,18,43,3.20
2014,12,10,18,44,4.80
2014,12,10,18,45,4.80
2014,12,10,18,46,4.80
2014,12,10,18,48,1.60
2014,12,10,18,49,1.60
2014,12,10,18,50,1.60
2014,12,10,18,51,1.60
2014,12,10,18,57,3.20
2014,12,10,18,58,3.20
2014,12,10,19,11,1.60
2014,12,10,19,16,1.60
2014,12,10,19,18,3.20
2014,12,10,19,19,3.20
2014,12,10,19,21,1.60
2014,12,10,19,22,1.60
2014,12,10,19,30,3.20
2014,12,10,19,32,1.60
2014,12,10,19,34,1.60
2014,12,10,19,38,3.20
2014,12,10,19,39,1.60
2014,12,10,19,40,1.60
2014,12,10,19,41,6.40
2014,12,10,19,42,9.60
2014,12,10,19,43,8.10
2014,12,10,19,44,6.40
2014,12,10,19,45,9.60
2014,12,10,19,46,9.60
2014,12,10,19,47,9.60
2014,12,10,19,48,16.10
2014,12,10,19,49,14.50
2014,12,10,19,50,11.30
2014,12,10,19,51,11.30
2014,12,10,19,52,8.10
2014,12,10,19,53,8.10
2014,12,10,19,54,9.60
2014,12,10,19,55,11.30
2014,12,10,19,56,3.20
2014,12,10,19,58,1.60
2014,12,10,19,59,4.80
2014,12,10,20,00,4.80
2014,12,10,20,01,4.80
2014,12,10,20,02,6.40
2014,12,10,20,03,8.10
2014,12,10,20,04,9.60
2014,12,10,20,05,11.30
2014,12,10,20,06,8.10
2014,12,10,20,07,6.40
2014,12,10,20,08,6.40
2014,12,10,20,09,4.80
2014,12,10,20,10,4.80
2014,12,10,20,11,8.10
2014,12,10,20,12,6.40
2014,12,10,20,13,6.40
2014,12,10,20,14,4.80
2014,12,10,20,15,3.20
2014,12,10,20,16,3.20
2014,12,10,20,18,4.80
2014,12,10,20,19,1.60
2014,12,10,20,21,1.60
2014,12,10,20,24,4.80
2014,12,10,20,25,4.80
2014,12,10,20,26,3.20
2014,12,10,20,31,1.60
2014,12,10,20,38,1.60
2014,12,10,20,39,3.20
2014,12,10,20,41,3.20
2014,12,10,20,42,3.20
2014,12,10,20,43,3.20
2014,12,10,20,44,1.60
2014,12,10,20,45,1.60
2014,12,10,20,46,3.20
2014,12,10,20,49,6.40
2014,12,10,20,50,6.40
2014,12,10,20,51,1.60
2014,12,10,20,52,8.10
2014,12,10,20,53,8.10
2014,12,10,20,54,3.20
2014,12,10,20,56,1.60
2014,12,10,20,57,1.60
2014,12,10,20,58,6.40
2014,12,10,20,59,8.10
2014,12,10,21,00,4.80
2014,12,10,21,01,3.20
2014,12,10,21,03,6.40
2014,12,10,21,04,4.80
2014,12,10,21,09,1.60
2014,12,10,21,10,4.80
2014,12,10,21,11,4.80
2014,12,10,21,12,1.60
2014,12,10,21,15,8.10
2014,12,10,21,16,9.60
2014,12,10,21,17,11.30
2014,12,10,21,18,14.50
2014,12,10,21,19,16.10
2014,12,10,21,20,8.10
2014,12,10,21,21,8.10
2014,12,10,21,23,3.20
2014,12,10,21,24,1.60
2014,12,10,21,26,8.10
2014,12,10,21,27,4.80
2014,12,10,21,28,11.30
2014,12,10,21,29,9.60
2014,12,10,21,30,4.80
2014,12,10,21,31,1.60
2014,12,10,21,35,4.80
2014,12,10,21,36,6.40
2014,12,10,21,37,4.80
2014,12,10,21,38,4.80
2014,12,10,21,39,8.10
2014,12,10,21,40,8.10
2014,12,10,21,41,9.60
2014,12,10,21,42,11.30
2014,12,10,21,43,4.80
2014,12,10,21,44,11.30
2014,12,10,21,45,11.30
2014,12,10,21,46,9.60
2014,12,10,21,47,3.20
2014,12,10,21,48,3.20
2014,12,10,21,50,3.20
2014,12,10,21,51,4.80
2014,12,10,21,52,3.20
2014,12,10,21,53,4.80
2014,12,10,21,54,3.20
2014,12,10,21,56,6.40
2014,12,10,21,57,6.40
2014,12,10,22,01,3.20
2014,12,10,22,02,3.20
2014,12,10,22,03,3.20
2014,12,10,22,04,6.40
2014,12,10,22,05,8.10
2014,12,10,22,06,4.80
2014,12,10,22,07,8.10
2014,12,10,22,08,8.10
2014,12,10,22,09,6.40
2014,12,10,22,10,6.40
2014,12,10,22,13,8.10
2014,12,10,22,14,9.60
2014,12,10,22,15,3.20
2014,12,10,22,16,3.20
2014,12,10,22,17,4.80
2014,12,10,22,18,8.10
2014,12,10,22,19,8.10
2014,12,10,22,20,8.10
2014,12,10,22,21,6.40
2014,12,10,22,22,3.20
2014,12,10,22,23,8.10
2014,12,10,22,24,9.60
2014,12,10,22,25,11.30
2014,12,10,22,26,9.60
2014,12,10,22,27,4.80
2014,12,10,22,28,1.60
2014,12,10,22,29,3.20
2014,12,10,22,32,1.60
2014,12,10,22,33,6.40
2014,12,10,22,34,6.40
2014,12,10,22,35,6.40
2014,12,10,22,36,4.80
2014,12,10,22,37,3.20
2014,12,10,22,41,4.80
2014,12,10,22,42,4.80
2014,12,10,22,43,4.80
2014,12,10,22,44,4.80
2014,12,10,22,45,3.20
2014,12,10,22,52,3.20
2014,12,10,22,55,4.80
2014,12,10,22,57,4.80
2014,12,10,22,58,6.40
2014,12,10,22,59,3.20
2014,12,10,23,00,6.40
2014,12,10,23,05,4.80
2014,12,10,23,06,4.80
2014,12,10,23,07,8.10
2014,12,10,23,08,8.10
2014,12,10,23,09,3.20
2014,12,10,23,10,8.10
2014,12,10,23,12,3.20
2014,12,10,23,13,4.80
2014,12,10,23,16,3.20
2014,12,10,23,17,8.10
2014,12,10,23,18,6.40
2014,12,10,23,19,3.20
2014,12,10,23,20,4.80
2014,12,10,23,21,3.20
2014,12,10,23,22,4.80
2014,12,10,23,25,3.20
2014,12,10,23,32,4.80
2014,12,10,23,33,8.10
2014,12,10,23,34,6.40
2014,12,10,23,35,11.30
2014,12,10,23,36,12.90
2014,12,10,23,37,8.10
2014,12,10,23,38,12.90
2014,12,10,23,39,14.50
2014,12,10,23,40,16.10
2014,12,10,23,41,11.30
2014,12,10,23,42,8.10
2014,12,10,23,43,12.90
2014,12,10,23,44,11.30
2014,12,10,23,45,9.60
2014,12,10,23,46,12.90
2014,12,10,23,47,9.60
2014,12,10,23,48,12.90
2014,12,10,23,49,11.30
2014,12,10,23,50,4.80
2014,12,10,23,51,8.10
2014,12,10,23,52,12.90
2014,12,10,23,53,14.50
2014,12,10,23,54,14.50
2014,12,10,23,55,8.10
2014,12,10,23,56,14.50
2014,12,10,23,57,9.60
2014,12,10,23,58,6.40
2014,12,10,23,59,8.10
